Location: Unspecified
(0.0000°N, 0.0000°E)
Time: 11:25:47
(UTC+00:00)

deb Explorer IX - Pass Details

Date: 24 June 2019
Orbit: 539 x 1112 km, 38.8° (Epoch: 22 July)

Event Time Altitude Azimuth Distance (km) Brightness Sun altitude
Rises 19:50:32 0° 328° (NNW) 3,739 ? -24.6°
Reaches altitude 10° 19:53:41 10° 338° (NNW) 2,707 ? -25.3°
Maximum altitude 19:59:19 31° 38° (NE) 1,498 ? -26.6°
Enters shadow 19:59:26 31° 40° (NE) 1,495 ? -26.6°
